Lyndonville, VT

11:04 PM EST on January 22, 2017 (GMT -0500)
Lyndonville

Weather History for KCDA - July, 2013

Change the Weather History Date:

Thursday, July 18, 2013

  Actual Average (K1V4) Record (K1V4)
Temperature  
Mean Temperature 76 °F -  
Max Temperature 85 °F 76 °F 99 °F (1953)
Min Temperature 66 °F 54 °F 41 °F (1956)
Cooling Degree Days 10    
Growing Degree Days 26 (Base 50)    
Moisture  
Dew Point 66 °F    
Average Humidity 79    
Maximum Humidity 91    
Minimum Humidity 52    
Precipitation  
Precipitation 0.00 in - - ()
Sea Level Pressure  
Sea Level Pressure 30.04 in    
Wind  
Wind Speed 2 mph (SSW)    
Max Wind Speed 8 mph    
Max Gust Speed -    
Visibility 6 miles    
Events Fog , Rain    
Averages and records for this station are not official NWS values.
T = Trace of Precipitation, MM = Missing Value Source: NWS Daily Summary

Daily Weather History Graph

Daily Weather History Graph

Search for Another Location

Airport or City:

Trip Planner

Search our weather history database for the weather conditions in past years. The results will help you decide how hot, cold, wet, or windy it might be!

Date:

Astronomy

Jul. 18, 2013 Rise Set
Actual Time 5:20 AM EDT 8:27 PM EDT
Civil Twilight 4:45 AM EDT 9:02 PM EDT
Nautical Twilight 3:59 AM EDT 9:48 PM EDT
Astronomical Twilight 3:04 AM EDT 10:42 PM EDT
Moon 4:20 PM EDT (7/18) 1:10 AM EDT (7/18)
Length of Visible Light 16h 17m
Length of Day
15h 07m
Waxing Gibbous, 77% of the Moon is Illuminated
Jul 18
Waxing Gibbous
Jul 22
Full
Jul 29
Last Quarter
Aug 6
New
Aug 14
First Quarter

Hourly Weather History & Observations

Time (EDT) Temp. Heat Index Dew Point Humidity Pressure Visibility Wind Dir Wind Speed Gust Speed Precip Events Conditions
12:15 AM 68.9 °F - 65.8 °F 90% 30.05 in 0.8 mi SE 5.8 mph - N/A   Mostly Cloudy
12:35 AM 69.1 °F - 66.2 °F 91% 30.05 in 10.0 mi SSE 8.1 mph - N/A   Scattered Clouds
12:55 AM 69.3 °F - 66.4 °F 91% 30.05 in 1.2 mi ESE 4.6 mph - N/A   Mostly Cloudy
1:15 AM 69.4 °F - 66.6 °F 91% 30.05 in 2.0 mi SE 6.9 mph - N/A   Overcast
1:35 AM 69.1 °F - 66.2 °F 91% 30.05 in 5.0 mi Calm Calm - N/A   Scattered Clouds
1:55 AM 68.9 °F - 66.2 °F 91% 30.05 in 0.5 mi Calm Calm - N/A Fog Fog
2:15 AM 68.7 °F - 65.7 °F 90% 30.04 in 0.2 mi Calm Calm - N/A Fog Fog
2:35 AM 68.5 °F - 65.7 °F 90% 30.04 in 0.2 mi Calm Calm - N/A Fog Fog
2:55 AM 67.3 °F - 64.6 °F 91% 30.05 in 0.2 mi Calm Calm - N/A Fog Fog
3:15 AM 67.8 °F - 65.1 °F 91% 30.05 in 0.2 mi Calm Calm - N/A Fog Fog
3:35 AM 68.2 °F - 65.3 °F 90% 30.05 in 0.2 mi Calm Calm - N/A Fog Fog
3:55 AM 68.0 °F - 65.3 °F 91% 30.05 in 0.8 mi Calm Calm - N/A   Overcast
4:15 AM 67.8 °F - 65.1 °F 91% 30.05 in 4.0 mi Calm Calm - N/A   Scattered Clouds
4:35 AM 67.1 °F - 64.4 °F 91% 30.06 in 7.0 mi Calm Calm - N/A   Scattered Clouds
4:55 AM 66.9 °F - 64.2 °F 91% 30.06 in 1.2 mi Calm Calm - N/A   Mist
5:15 AM 66.7 °F - 64.0 °F 91% 30.07 in 0.2 mi Calm Calm - N/A Fog Fog
5:35 AM 67.1 °F - 64.4 °F 91% 30.07 in 0.2 mi Calm Calm - N/A Fog Fog
5:55 AM 66.9 °F - 64.2 °F 91% 30.07 in 2.0 mi Calm Calm - N/A   Clear
6:15 AM 67.6 °F - 64.8 °F 90% 30.08 in 1.8 mi Calm Calm - N/A   Mist
6:35 AM 68.4 °F - 65.5 °F 90% 30.07 in 0.5 mi Calm Calm - N/A Fog Fog
6:55 AM 69.1 °F - 66.2 °F 91% 30.08 in 7.0 mi Calm Calm - N/A   Overcast
7:15 AM 68.7 °F - 66.0 °F 91% 30.08 in 7.0 mi Calm Calm - N/A   Overcast
7:35 AM 69.1 °F - 66.4 °F 91% 30.09 in 10.0 mi Calm Calm - N/A   Overcast
7:55 AM 69.8 °F - 67.1 °F 91% 30.09 in 10.0 mi Calm Calm - N/A   Overcast
8:15 AM 70.3 °F - 67.5 °F 91% 30.09 in 7.0 mi Calm Calm - N/A   Mostly Cloudy
8:35 AM 70.2 °F - 67.3 °F 91% 30.09 in 3.0 mi Calm Calm - N/A   Scattered Clouds
8:55 AM 73.0 °F - 67.5 °F 83% 30.09 in 10.0 mi Calm Calm - N/A   Clear
9:15 AM 74.3 °F - 65.1 °F 73% 30.09 in 10.0 mi Calm Calm - N/A   Clear
9:35 AM 74.5 °F - 65.1 °F 72% 30.08 in 10.0 mi Calm Calm - N/A   Clear
9:55 AM 75.4 °F - 66.7 °F 74% 30.08 in 10.0 mi Calm Calm - N/A   Scattered Clouds
10:15 AM 77.4 °F - 67.5 °F 71% 30.08 in 10.0 mi Calm Calm - N/A   Scattered Clouds
10:35 AM 77.4 °F - 66.6 °F 69% 30.08 in 10.0 mi Calm Calm - N/A   Clear
10:55 AM 78.3 °F - 66.7 °F 68% 30.07 in 10.0 mi Calm Calm - N/A   Scattered Clouds
11:15 AM 79.2 °F - 66.7 °F 66% 30.07 in 10.0 mi Calm Calm - N/A   Scattered Clouds
11:35 AM 80.8 °F 83.3 °F 67.5 °F 64% 30.07 in 10.0 mi Calm Calm - N/A   Scattered Clouds
11:55 AM 81.5 °F 84.4 °F 68.2 °F 64% 30.07 in 10.0 mi SSE 5.8 mph - N/A   Scattered Clouds
12:15 PM 80.8 °F 83.1 °F 66.6 °F 62% 30.06 in 10.0 mi South 3.5 mph - N/A   Scattered Clouds
12:35 PM 81.9 °F 84.1 °F 66.2 °F 59% 30.06 in 10.0 mi Calm Calm - N/A   Mostly Cloudy
12:55 PM 82.6 °F 85.1 °F 67.1 °F 59% 30.05 in 10.0 mi SSW 3.5 mph - N/A   Scattered Clouds
1:15 PM 83.7 °F 86.0 °F 66.4 °F 56% 30.05 in 10.0 mi SW 6.9 mph - N/A   Scattered Clouds
1:35 PM 84.9 °F 87.6 °F 66.9 °F 55% 30.05 in 10.0 mi WSW 6.9 mph - N/A   Scattered Clouds
1:55 PM 85.1 °F 87.1 °F 65.7 °F 52% 30.04 in 10.0 mi WSW 6.9 mph - N/A   Scattered Clouds
2:15 PM 83.7 °F 85.5 °F 65.3 °F 54% 30.04 in 10.0 mi WSW 4.6 mph - N/A   Scattered Clouds
2:35 PM 82.8 °F 84.9 °F 66.0 °F 57% 30.03 in 10.0 mi West 5.8 mph - N/A   Mostly Cloudy
2:55 PM 82.6 °F 84.1 °F 64.6 °F 54% 30.03 in 10.0 mi WSW 5.8 mph - N/A   Scattered Clouds
3:15 PM 83.5 °F 85.3 °F 65.5 °F 54% 30.02 in 10.0 mi WSW 3.5 mph - N/A   Scattered Clouds
3:35 PM 84.7 °F 86.8 °F 65.7 °F 53% 30.01 in 10.0 mi West 4.6 mph - N/A   Clear
3:55 PM 83.8 °F 85.8 °F 65.5 °F 54% 30.00 in 10.0 mi Calm Calm - N/A   Clear
4:15 PM 84.4 °F 86.1 °F 65.1 °F 52% 30.00 in 10.0 mi West 3.5 mph - N/A   Clear
4:35 PM 82.6 °F 84.3 °F 64.9 °F 55% 30.00 in 10.0 mi WSW 4.6 mph - N/A   Scattered Clouds
4:55 PM 77.4 °F - 69.1 °F 76% 30.00 in 10.0 mi South 4.6 mph - N/A   Scattered Clouds
5:15 PM 79.0 °F - 68.7 °F 71% 30.00 in 10.0 mi South 3.5 mph - N/A   Scattered Clouds
6:15 PM 75.6 °F - 68.2 °F 78% 29.98 in 3.0 mi South 8.1 mph - N/A Rain Heavy Rain
6:35 PM 74.5 °F - 70.3 °F 87% 29.99 in 3.0 mi Calm Calm - N/A   Haze
6:55 PM 74.7 °F - 70.0 °F 85% 30.00 in 7.0 mi Calm Calm - N/A Rain Light Rain
7:15 PM 74.3 °F - 69.1 °F 84% 30.00 in 10.0 mi Calm Calm - N/A   Mostly Cloudy
7:35 PM 74.3 °F - 67.1 °F 78% 30.00 in 10.0 mi Calm Calm - N/A   Drizzle
7:55 PM 73.6 °F - 68.7 °F 85% 30.01 in 7.0 mi NNE 3.5 mph - N/A Rain Light Rain
8:15 PM 72.5 °F - 66.2 °F 81% 30.02 in 7.0 mi Calm Calm - N/A Rain Light Rain
8:35 PM 70.7 °F - 66.4 °F 86% 30.01 in 5.0 mi Calm Calm - N/A Rain Light Rain
8:55 PM 70.7 °F - 67.1 °F 88% 30.01 in 7.0 mi ENE 3.5 mph - N/A   Scattered Clouds
9:15 PM 70.7 °F - 67.5 °F 89% 30.01 in 5.0 mi NNE 4.6 mph - N/A Rain Light Rain
9:35 PM 70.2 °F - 67.1 °F 90% 30.01 in 1.5 mi West 3.5 mph - N/A   Drizzle
9:55 PM 69.4 °F - 66.2 °F 89% 30.01 in 7.0 mi Calm Calm - N/A   Light Drizzle
10:15 PM 68.5 °F - 65.3 °F 89% 30.01 in 4.0 mi Calm Calm - N/A   Mostly Cloudy
10:35 PM 68.5 °F - 65.5 °F 90% 30.00 in 7.0 mi Calm Calm - N/A   Mostly Cloudy
10:55 PM 68.5 °F - 65.3 °F 89% 30.00 in 7.0 mi Calm Calm - N/A   Scattered Clouds
11:15 PM 68.5 °F - 65.3 °F 89% 30.00 in 5.0 mi Calm Calm - N/A   Mostly Cloudy
11:35 PM 69.4 °F - 66.4 °F 90% 30.00 in 5.0 mi Calm Calm - N/A   Mostly Cloudy
11:55 PM 70.0 °F - 66.9 °F 90% 29.99 in 7.0 mi Calm Calm - N/A   Scattered Clouds